Weather History for KMKG - June, 2013

Change the Weather History Date:

Tuesday, June 18, 2013

  Actual Average Record
Temperature  
Mean Temperature 66 °F 67 °F  
Max Temperature 75 °F 77 °F 91 °F (1954)
Min Temperature 56 °F 58 °F 41 °F (1999)
Degree Days  
Heating Degree Days 0 2  
Month to date heating degree days 49 52  
Since 1 June heating degree days 49 52  
Since 1 July heating degree days 6321 6546  
Cooling Degree Days 1 4  
Month to date cooling degree days 15 47  
Year to date cooling degree days 75 76  
Since 1 June cooling degree days 15 47  
Growing Degree Days 15 (Base 50)    
Moisture  
Dew Point 50 °F    
Average Humidity 63    
Maximum Humidity 90    
Minimum Humidity 35    
Precipitation  
Precipitation 0.00 in 0.08 in 3.93 in (2014)
Month to date precipitation 3.58 1.59  
Year to date precipitation 26.27 13.86  
Snow  
Snow 0.00 in 0.00 in - ()
Month to date snowfall 0.0 0.0  
Since 1 June snowfall 0.0 0.0  
Since 1 July snowfall 98.6 93.7  
Snow Depth 0.00 in    
Sea Level Pressure  
Sea Level Pressure 30.02 in    
Wind  
Wind Speed 9 mph (ENE)    
Max Wind Speed 16 mph    
Max Gust Speed 21 mph    
Visibility 10 miles    
Events      
T = Trace of Precipitation, MM = Missing Value Source: NWS Daily Summary

Daily Weather History Graph

Daily Weather History Graph

Search for Another Location

Airport or City:

Trip Planner

Search our weather history database for the weather conditions in past years. The results will help you decide how hot, cold, wet, or windy it might be!

Date:

Astronomy

Jun. 18, 2013 Rise Set
Actual Time 6:04 AM EDT 9:27 PM EDT
Civil Twilight 5:29 AM EDT 10:03 PM EDT
Nautical Twilight 4:42 AM EDT 10:49 PM EDT
Astronomical Twilight 3:45 AM EDT 11:47 PM EDT
Moon 4:05 PM EDT (6/18) 2:20 AM EDT (6/18)
Length of Visible Light 16h 33m
Length of Day
15h 22m
Waxing Gibbous, 70% of the Moon is Illuminated
Jun 18
Waxing Gibbous
Jun 23
Full
Jun 30
Last Quarter
Jul 8
New
Jul 15
First Quarter

Hourly Weather History & Observations

Time (EDT) Temp. Dew Point Humidity Pressure Visibility Wind Dir Wind Speed Gust Speed Precip Events Conditions
12:55 AM 63.0 °F 59.0 °F 87% 29.94 in 10.0 mi NNE 9.2 mph - N/A   Scattered Clouds
1:03 AM 64.4 °F 59.0 °F 83% 29.94 in 10.0 mi NE 9.2 mph - N/A   Mostly Cloudy
1:55 AM 64.0 °F 59.0 °F 84% 29.94 in 10.0 mi East 10.4 mph - N/A   Overcast
2:37 AM 62.6 °F 55.4 °F 77% 29.95 in 10.0 mi East 10.4 mph - N/A   Overcast
2:55 AM 62.1 °F 55.9 °F 80% 29.95 in 10.0 mi East 9.2 mph - N/A   Overcast
3:27 AM 60.8 °F 55.4 °F 82% 29.96 in 10.0 mi ENE 10.4 mph - N/A   Overcast
3:55 AM 60.1 °F 55.0 °F 83% 29.96 in 10.0 mi ENE 9.2 mph - N/A   Overcast
4:55 AM 60.1 °F 54.0 °F 80% 29.97 in 10.0 mi ENE 9.2 mph - N/A   Overcast
5:29 AM 57.2 °F 51.8 °F 82% 29.99 in 10.0 mi NE 8.1 mph - N/A   Scattered Clouds
5:55 AM 57.0 °F 52.0 °F 83% 29.99 in 10.0 mi ENE 9.2 mph - N/A   Scattered Clouds
6:55 AM 57.0 °F 51.1 °F 81% 30.01 in 10.0 mi NE 5.8 mph - N/A   Mostly Cloudy
7:55 AM 60.1 °F 50.0 °F 69% 30.02 in 10.0 mi ENE 10.4 mph - N/A   Scattered Clouds
8:55 AM 62.1 °F 48.9 °F 62% 30.03 in 10.0 mi ENE 12.7 mph - N/A   Partly Cloudy
9:55 AM 64.9 °F 50.0 °F 58% 30.04 in 10.0 mi NE 11.5 mph - N/A   Partly Cloudy
10:55 AM 66.9 °F 48.9 °F 52% 30.05 in 10.0 mi NE 8.1 mph - N/A   Scattered Clouds
11:55 AM 69.1 °F 48.9 °F 49% 30.05 in 10.0 mi NE 12.7 mph - N/A   Scattered Clouds
12:55 PM 71.1 °F 48.0 °F 44% 30.05 in 10.0 mi NE 12.7 mph - N/A   Scattered Clouds
1:55 PM 73.0 °F 46.9 °F 39% 30.04 in 10.0 mi ENE 13.8 mph 20.7 mph N/A   Mostly Cloudy
2:55 PM 73.0 °F 46.0 °F 38% 30.05 in 10.0 mi NE 10.4 mph 19.6 mph N/A   Mostly Cloudy
3:55 PM 73.9 °F 44.1 °F 34% 30.04 in 10.0 mi East 10.4 mph 16.1 mph N/A   Mostly Cloudy
4:55 PM 73.9 °F 44.1 °F 34% 30.05 in 10.0 mi ENE 11.5 mph - N/A   Scattered Clouds
5:55 PM 73.9 °F 44.1 °F 34% 30.05 in 10.0 mi East 5.8 mph - N/A   Scattered Clouds
6:55 PM 73.0 °F 46.0 °F 38% 30.04 in 10.0 mi East 8.1 mph - N/A   Scattered Clouds
7:55 PM 71.1 °F 45.0 °F 39% 30.04 in 10.0 mi East 8.1 mph - N/A   Scattered Clouds
8:55 PM 68.0 °F 45.0 °F 43% 30.06 in 10.0 mi ESE 6.9 mph - N/A   Scattered Clouds
9:55 PM 64.9 °F 45.0 °F 48% 30.06 in 10.0 mi SE 3.5 mph - N/A   Scattered Clouds
10:55 PM 62.1 °F 44.1 °F 52% 30.08 in 10.0 mi Calm Calm - N/A   Scattered Clouds
11:55 PM 59.0 °F 46.9 °F 64% 30.09 in 10.0 mi Calm Calm - N/A   Clear